Miscellaneous Local Product
Issued by NWS Hastings, NE

Home | Current Version | Previous Version | Text Only | Print | Product List | Glossary On
Versions: 1 2 3 4 5 6 7 8 9 10 11 12 13 14 15 16 17 18 19 20 21 22 23 24 25 26 27 28 29 30 31 32 33 34 35 36 37 38 39 40 41 42 43 44 45 46 47 48 49 50
000
AXUS43 KGID 051402
MISGRI

GID CWA HOURLY WEATHER ROUNDUP
NATIONAL WEATHER SERVICE HASTINGS NE
900 AM CDT SUN JUL 05 2015

NOTE: "FAIR" INDICATES FEW OR NO CLOUDS BELOW 12,000 FEET WITH NO
SIGNIFICANT WEATHER AND/OR OBSTRUCTIONS TO VISIBILITY.

...SOUTH CENTRAL NEBRASKA...

CITY           SKY/WX    TMP DP  RH WIND       PRES   REMARKS
GRAND ISLAND   PTSUNNY   72  67  84 SE7       29.89S
HASTINGS       MOSUNNY   74  67  78 SE12      29.88S
KEARNEY        SUNNY     75  66  73 S14       29.87S
ORD            CLOUDY    70  65  84 SE8       29.87F THUNDER
YORK           CLOUDY    72  68  88 S12       29.90R
AURORA         CLOUDY    74  69  86 S10       29.89S
LEXINGTON      SUNNY     77  68  74 S10       29.86S
HOLDREGE       SUNNY     74  66  77 SE13      29.86S
HEBRON         PTSUNNY   74  67  79 S6        29.90S

...NEBRASKA PANHANDLE...

CITY           SKY/WX    TMP DP  RH WIND       PRES   REMARKS
CHADRON        SUNNY     74  66  76 CALM      29.79S
ALLIANCE       SUNNY     72  65  78 SE10      29.85S
SCOTTSBLUFF    MOSUNNY   72  64  76 NW3       29.87R
SIDNEY         SUNNY     76  60  57 VRB5      29.90S

...WESTERN AND NORTH CENTRAL NEBRASKA...

CITY           SKY/WX    TMP DP  RH WIND       PRES   REMARKS
VALENTINE      SUNNY     78  65  63 S10       29.79S
AINSWORTH      SUNNY     79  67  66 S14G23    29.81F
ONEILL         MOSUNNY   74  68  83 S15       29.85S
BROKEN BOW     SUNNY     76  68  76 SE13G21   29.87R
IMPERIAL       SUNNY     75  63  66 SW12      29.86F
NORTH PLATTE   SUNNY     78  63  59 S12       29.85R
MCCOOK         SUNNY     83  62  49 S17G24    29.83S

...EASTERN NEBRASKA...

CITY           SKY/WX    TMP DP  RH WIND       PRES   REMARKS
NORFOLK        LGT RAIN  69  65  86 SE23G33   29.90F
SO SIOUX CITY  CLOUDY    68  63  84 SE8       29.94F
TEKAMAH        CLOUDY    69  65  86 N7G20     29.97R
COLUMBUS       CLOUDY    72  63  73 N9        29.95R
ALBION         PTSUNNY   69  66  92 SE7G17    29.89F
OMAHA EPPLEY   CLOUDY    70  65  84 SE7       29.94R
OFFUTT AFB     CLOUDY    70  65  85 SE12      29.94R
MILLARD        CLOUDY    69  65  87 SE6       29.94S
LINCOLN        CLOUDY    73  67  81 S10       29.93R
NEBRASKA CITY  CLOUDY    69  65  87 S9        29.96S
BEATRICE       CLOUDY    72  67  84 SE10      29.92S
FALLS CITY     PTSUNNY   73  68  84 SE8       29.96S

...NORTHERN KANSAS...

CITY           SKY/WX    TMP DP  RH WIND       PRES   REMARKS
GOODLAND       SUNNY     74  62  66 SW9       29.89S
HILL CITY      SUNNY     83  65  54 S8G17     29.84R
NORTON         SUNNY     79  61  53 SE12      29.84R
PHILLIPSBURG   SUNNY     81  68  65 SE10G17   29.86R
SMITH CENTER   SUNNY     79  66  65 SE16      29.88R
HAYS           MOSUNNY   79  63  57 S14G20    29.88R
RUSSELL        MOSUNNY   77  67  71 S20       29.86R
CONCORDIA      MOSUNNY   78  70  76 S14       29.90R
SALINA         PTSUNNY   83  68  60 S17G24    29.90R
TOPEKA         SUNNY     77  70  79 SE8       29.97S



USA.gov is the U.S. government's official web portal to all federal, state and local government web resources and services.